SL-19 DEB, 23488

Orbit data source: Space-Track

SL-19 DEB, 23488 is space debris in LEO originally from a launch on Mon, 26 Dec 1994 UTC launched from the Tyuratam Missile And Space Complex (TTMTR). Debris objects in space refer to the collection of defunct objects orbiting the Earth. Examples of debris include non-operational satellites, rocket bodies, and fragments generated from explosions, collisions, or faulty payload assembly.

Loading next visibility...
Identifier
23488, 1994-085L
Orbit
LEO
Country
Flag of CISCIS
Related business
Manufacturer
Unknown
Mission
Spacecraft
Bus & Motor
Unknown
Mass
Unknown
Launch date (UTC)
1994-12-26 (31 years ago)
Launch vehicle
Unknown
Launch site
Tyuratam Missile And Space Complex (TTMTR)
Object type
Payload
Rocket body
Debris
Shape & HBR
Unknown shape, 0.4 m
Radar Cross Section
Medium (>0.1 m² and <1 m²)

Expand to show TLE details & history
Last TLE update: 10 hours ago

TLE from 10 hours ago
0 SL-19 DEB
1 23488U 94085L   25310.09294189  .00000403  00000-0  11957-1 0  9995
2 23488  65.0004  78.2316 0231147 162.3830  10.4443 11.29522705269726
Epoch: 2025-11-06T02:13Z
TLE epoch observation values (Epoch: 2025-11-06T02:13:50.179Z)
Latitude
5.99767°
Longitude
176.42153°
Altitude
1,823.209 km
Speed
7.052 km/s
True Right ascension
17h 01m 44s
True Declination
5° 58' 00"
Sunlit
Object was in daylight at epoch
Visualization orbit readout
Latitude
Unknown
Longitude
Unknown
Altitude
Unknown
Speed
Unknown
Apparent Right ascension
Unknown
Apparent Declination
Unknown
Sunlit
N/A
Visualization observer readout
Local Sidereal Time
08:24:56
Azimuth
Unknown
Elevation
Unknown
Doppler factor
Unknown
Orbital elements
Apogee altitude
2,205.408 km
Perigee altitude
1,817.561 km
Semi-major axis
8,389.621 km
Eccentricity
0.02311
Inclination
65.0004°
RAAN
78.2316°
Arg. of periapsis
162.383°
True anomaly
10.93848°
Mean anomaly
10.4443°
Eccentric anomaly
10.68996°
Mean motion
2.82442 °/min
Orbital period
127.46 mins
BSTAR
0.011957
Loading maneuver chart data...
Computing Atmospheric mass density...
Loading historical data...
Loading historical data...
Loading historical data...
Loading historical data...
Loading historical data...
Loading historical data...
Loading historical data...

Documentation

Showing up to 5 results
|